Regional Weather Roundup
Issued by NWS New Orleans/Baton Rouge, LA

Home | Current Version | Previous Version | Text Only | Print | Product List | Glossary Off
Versions: 1 2 3 4 5 6 7 8 9 10 11 12 13 14 15 16 17 18 19 20 21 22 23 24 25 26 27 28 29 30 31 32 33 34 35 36 37 38 39 40 41 42 43 44 45 46 47 48 49 50

126
ASUS44 KLIX 200505
RWRLIX
NEW ORLEANS REGIONAL WEATHER ROUNDUP
NATIONAL WEATHER SERVICE NEW ORLEANS LA
1200 AM CDT SAT SEP 20 2014

NOTE: "FAIR" INDICATES FEW OR NO CLOUDS BELOW 12,000 FEET WITH NO
      SIGNIFICANT WEATHER AND/OR OBSTRUCTIONS TO VISIBILITY.
      SKY/WX - SKY CONDITION AND SIGNIFICANT WEATHER.
      TMP - AIR TEMPERATURE.     DP    - DEWPOINT TEMPERATURE.
      RH  - RELATIVE HUMIDITY.   PRES  - PRESSURE.
      HI  - HEAT INDEX.          WCI   - WIND CHILL INDEX.

*  THESE STATIONS ARE NOT NWS OR FAA STATIONS AND ARE NOT UNDER
   NWS QUALITY CONTROL.

LAZ038-040-048-061>063-065>067-069-200600-
SOUTHEAST LOUISIANA

CITY           SKY/WX    TMP DP  RH WIND       PRES   REMARKS
N.O. AUDUBON     N/A     78  70  75 MISG        N/A
N.O. INTL ARPT CLEAR     78  67  68 E5        29.95F
N.O. LAKEFRONT CLEAR     80  70  71 E9        29.96F
N.O. DOWNTOWN*   N/A     81  64  57 E5        29.96F
SLIDELL        CLEAR     71  68  90 N3        29.96F
BATON ROUGE    CLEAR     72  70  93 NE3       29.97S
BOOTHVILLE     CLEAR     81  72  74 E10       29.94F
BELLE CHASSE   CLEAR     76  67  73 E7        29.94F
BOGALUSA*        N/A     71  68  89 CALM      30.00F FOG
GALLIANO*      NOT AVBL
NEW ROADS*       N/A     72  72  98 CALM      29.97S
GONZALES*        N/A     72  72 100 CALM      29.95F
HAMMOND*       CLEAR     72  68  88 CALM      29.98F
HOUMA*         CLEAR     74  66  77 NE5       29.94F
PORT FOURCHON* MOCLDY    81  72  74 E13G22    29.95F

$$

MSZ070-080>082-200600-
SOUTHERN MISSISSIPPI

CITY           SKY/WX    TMP DP  RH WIND       PRES   REMARKS
MCCOMB         CLEAR     72  68  87 CALM      30.00S
GULFPORT       CLEAR     75  69  81 NE5       29.97F
BILOXI         CLEAR     75  69  80 E6        29.98S
PASCAGOULA     CLEAR     70  68  93 N5        29.98F

$$

COASTAL OBSERVATIONS
LAKE AND NEARSHORE STATIONS

STATION/POSITION TIME  TEMP    WIND        PRES    WAVE
                       AIR SEA DIR/SP/G            HT/PER
                 (UTC) (F)     (DEG/KT/KT) (MB)    (FT/S)
PASCAGOULA       0400           70/  8/ 14 1014.7
WAVELAND YACHT   0400                      1014.5
GRAND ISLE       0400      83   80/ 13/ 19 1014.2
SOUTHWEST PASS   0400      89   90/ 18/ 23 1013.6
NEW CANAL        0400      81              1015.0
SHELL BEACH      0400   80 78   80/ 12/ 14 1014.3

OFFSHORE STATIONS

STATION/POSITION TIME  TEMP    WIND        PRES    WAVE
                       AIR SEA DIR/SP/G            HT/PER
                 (UTC) (F)     (DEG/KT/KT) (MB)    (FT/S)
64 S DAUPHIN ISL 0443   81 84   90/ 21/ 25 1014.0    7/ 8

$$




USA.gov is the U.S. government's official web portal to all federal, state and local government web resources and services.